Location: Summit Observatory
(39.5293°N, 75.7290°W)
Time: 09:44:12
(UTC-04:00)

Amateur Radio Satellites - All Passes

Search period start: 22 August 2014 09:14
Search period end: 23 August 2014 09:14
Location: Summit Observatory, 39.5293°N, 75.7290°W

Satellite Date Start Highest point End Downlink Frequencies (MHz)
Time Altitude Azimuth
HO-68 22 Aug 09:33:30 09:40:10 40° 99° (E) 09:46:47 435.675 MHz FM
UKube-1 22 Aug 09:34:41 09:37:39 18° 94° (E) 09:40:36 145.840 MHz, 145.915 MHz
RS-15 22 Aug 09:35:14 09:46:18 75° 117° (ESE) 09:57:10 29.354 - 29.394 USB, Beacon 29.352 USB
UOSAT-12 22 Aug 09:45:07 09:48:20 18° 317° (NW) 09:51:35 437.025 FM, 437.400 FM
Oscar 11 22 Aug 09:50:56 09:53:47 17° 93° (E) 09:56:37 145.825 FM, Beacon 2401.500 USB
Saudisat 1A 22 Aug 09:54:17 09:58:36 50° 54° (NE) 10:02:53 436.775 MHz
KITSAT 1 22 Aug 10:09:21 10:17:10 50° 53° (NE) 10:24:56 435.175 FM
UKube-1 22 Aug 11:09:58 11:13:59 38° 289° (WNW) 11:17:59 145.840 MHz, 145.915 MHz
HO-68 22 Aug 11:21:18 11:27:46 38° 296° (WNW) 11:34:13 435.675 MHz FM
FUNcube-1 22 Aug 11:25:25 11:29:52 75° 102° (ESE) 11:34:23 145.950 - 145.970 MHz USB
Oscar 11 22 Aug 11:26:02 11:30:07 40° 288° (WNW) 11:34:12 145.825 FM, Beacon 2401.500 USB
Saudisat 1A 22 Aug 11:35:05 11:37:46 16° 251° (WSW) 11:40:25 436.775 MHz
RS-15 22 Aug 11:49:50 11:59:37 35° 321° (NW) 12:09:24 29.354 - 29.394 USB, Beacon 29.352 USB
KITSAT 1 22 Aug 12:05:07 12:12:19 37° 252° (WSW) 12:19:30 435.175 FM
JAS-1B 22 Aug 12:37:15 12:43:25 19° 54° (NE) 12:49:18 435.800 - 435.900 CW/SSB
FUNcube-1 22 Aug 13:04:39 13:05:39 11° 297° (WNW) 13:06:40 145.950 - 145.970 MHz USB
Oscar 19 22 Aug 13:05:30 13:10:05 33° 68° (ENE) 13:14:41 437.125 CW, 437.150 USB
AO-Echo 22 Aug 13:08:56 13:12:15 18° 64° (ENE) 13:15:31 ?
ITAMSAT 1 22 Aug 13:17:50 13:21:31 20° 64° (ENE) 13:25:13 435.822 SSB
Uribyol 2 22 Aug 13:29:31 13:33:48 27° 67° (ENE) 13:38:05 436.500 FM
Oscar 16 22 Aug 13:38:05 13:43:11 72° 74° (ENE) 13:48:20 437.025 USB, Beacon 2401.1428
AO-27 22 Aug 13:43:11 13:47:50 35° 69° (ENE) 13:52:30 436.795 MHz FM
SO-50 22 Aug 13:43:53 13:46:42 15° 41° (NE) 13:49:32 436.795 FM
ISS 22 Aug 13:51:22 13:54:34 49° 137° (SE) 13:57:47 145.800 FM
RS-15 22 Aug 14:09:56 14:16:42 18° 355° (N) 14:23:31 29.354 - 29.394 USB, Beacon 29.352 USB
TMSAT-1 22 Aug 14:17:03 14:21:08 23° 65° (ENE) 14:25:14 436.925 FM
JAS-1B 22 Aug 14:22:37 14:32:29 74° 72° (ENE) 14:41:51 435.800 - 435.900 CW/SSB
AO-7 22 Aug 14:24:29 14:29:07 16° 49° (NE) 14:33:45 29.400 - 29.500 MHz
MaSat-1 22 Aug 14:36:30 14:39:54 20° 102° (ESE) 14:43:31 437.345 MHz
Oscar 19 22 Aug 14:45:02 14:49:24 28° 264° (W) 14:53:49 437.125 CW, 437.150 USB
AO-Echo 22 Aug 14:45:30 14:50:35 56° 259° (W) 14:55:34 ?
ITAMSAT 1 22 Aug 14:55:38 15:00:38 49° 260° (W) 15:05:40 435.822 SSB
Gurwin Techsat 1B 22 Aug 14:57:44 15:03:02 75° 75° (ENE) 15:08:21 435.225 FM
Uribyol 2 22 Aug 15:08:25 15:13:07 35° 262° (W) 15:17:50 436.500 FM
Oscar 16 22 Aug 15:20:52 15:23:02 13° 270° (W) 15:25:13 437.025 USB, Beacon 2401.1428
AO-27 22 Aug 15:23:00 15:27:22 27° 264° (W) 15:31:44 436.795 MHz FM
SO-50 22 Aug 15:23:03 15:27:52 83° 240° (WSW) 15:32:43 436.795 FM
ISS 22 Aug 15:28:43 15:31:27 23° 335° (NNW) 15:34:12 145.800 FM
Uosat F 22 Aug 15:29:10 15:32:57 22° 65° (ENE) 15:36:44 435.120 FM
TMSAT-1 22 Aug 15:55:45 16:00:46 43° 261° (W) 16:05:48 436.925 FM
MaSat-1 22 Aug 16:12:00 16:16:34 47° 300° (WNW) 16:21:32 437.345 MHz
AO-7 22 Aug 16:12:11 16:20:29 73° 69° (ENE) 16:28:47 29.400 - 29.500 MHz
JAS-1B 22 Aug 16:15:22 16:23:25 28° 268° (W) 16:31:18 435.800 - 435.900 CW/SSB
OPAL 22 Aug 16:19:29 16:22:24 15° 93° (E) 16:25:18 ?
RS-15 22 Aug 16:25:27 16:34:29 28° 31° (NNE) 16:43:40 29.354 - 29.394 USB, Beacon 29.352 USB
UOSAT-12 22 Aug 16:33:48 16:38:18 42° 52° (NE) 16:42:45 437.025 FM, 437.400 FM
Gurwin Techsat 1B 22 Aug 16:41:21 16:43:32 12° 270° (W) 16:45:43 435.225 FM
Uosat F 22 Aug 17:06:41 17:11:26 43° 261° (W) 17:16:13 435.120 FM
ISS 22 Aug 17:08:17 17:09:09 11° 355° (N) 17:10:01 145.800 FM
Hamsat 22 Aug 17:46:35 17:50:35 41° 72° (ENE) 17:54:40 145.90 MHz
PANSAT 22 Aug 17:46:54 17:49:14 16° 177° (S) 17:51:34 not established
PCSat 22 Aug 17:47:30 17:49:54 13° 103° (ESE) 17:52:18 145.825 MHz
OPAL 22 Aug 17:56:30 18:01:40 64° 289° (WNW) 18:06:49 ?
JAS-2 22 Aug 17:58:25 18:05:02 61° 73° (ENE) 18:10:53 435.800 - 435.900 CW/SSB, 435.910 FM
AO-7 22 Aug 18:07:36 18:13:54 23° 266° (W) 18:20:14 29.400 - 29.500 MHz
UOSAT-12 22 Aug 18:14:36 18:18:10 22° 249° (WSW) 18:21:42 437.025 FM, 437.400 FM
SO-67 22 Aug 18:35:56 18:38:17 17° 69° (ENE) 18:40:38 435.3500 MHz FM
RS-15 22 Aug 18:37:39 18:48:48 81° 58° (ENE) 19:00:23 29.354 - 29.394 USB, Beacon 29.352 USB
ISS 22 Aug 18:45:11 18:47:02 14° 15° (NNE) 18:48:54 145.800 FM
Sapphire 22 Aug 18:56:54 19:02:08 54° 113° (ESE) 19:07:24 437.095 MHz 1200 baud AX-25 AFSK
Hamsat 22 Aug 19:24:08 19:26:45 16° 268° (W) 19:29:23 145.90 MHz
STRAND 1 22 Aug 19:25:36 19:30:25 41° 99° (E) 19:35:12 ?
PANSAT 22 Aug 19:26:54 19:28:44 13° 190° (S) 19:30:33 not established
PCSat 22 Aug 19:27:10 19:32:34 78° 299° (WNW) 19:38:01 145.825 MHz
JAS-2 22 Aug 19:45:30 19:50:19 21° 266° (W) 19:54:47 435.800 - 435.900 CW/SSB, 435.910 FM
HO-68 22 Aug 20:01:49 20:07:41 29° 61° (ENE) 20:13:33 435.675 MHz FM
SO-67 22 Aug 20:08:17 20:11:09 24° 264° (W) 20:14:02 435.3500 MHz FM
ISS 22 Aug 20:21:06 20:24:22 52° 34° (NE) 20:27:38 145.800 FM
UKube-1 22 Aug 20:30:11 20:32:41 15° 64° (ENE) 20:35:12 145.840 MHz, 145.915 MHz
Sapphire 22 Aug 20:41:37 20:45:52 23° 312° (NW) 20:50:10 437.095 MHz 1200 baud AX-25 AFSK
Oscar 11 22 Aug 20:46:25 20:48:20 13° 64° (ENE) 20:50:16 145.825 FM, Beacon 2401.500 USB
RS-15 22 Aug 20:51:30 20:59:57 26° 257° (WSW) 21:08:43 29.354 - 29.394 USB, Beacon 29.352 USB
STRAND 1 22 Aug 21:05:24 21:09:20 23° 295° (WNW) 21:13:15 ?
PCSat 22 Aug 21:14:15 21:16:54 14° 319° (NW) 21:19:34 145.825 MHz
HO-68 22 Aug 21:48:00 21:54:58 56° 258° (WSW) 22:01:58 435.675 MHz FM
ISS 22 Aug 21:58:39 22:00:49 16° 230° (SW) 22:02:58 145.800 FM
Oscar 10/S400 22 Aug 21:59:46 22:23:05 65° 172° (S) 07:21:45 145.825 - 145.975 CW/USB, Beacon 145.810 USB
UKube-1 22 Aug 22:04:16 22:08:29 48° 260° (W) 22:12:42 145.840 MHz, 145.915 MHz
Oscar 11 22 Aug 22:19:46 22:24:01 58° 260° (W) 22:28:18 145.825 FM, Beacon 2401.500 USB
FUNcube-1 22 Aug 22:21:14 22:25:14 51° 74° (ENE) 22:29:18 145.950 - 145.970 MHz USB
AO-40 22 Aug 23:21:14 01:53:32 34° 199° (SSW) 06:51:12 Beacon 2401.320
FUNcube-1 23 Aug 00:00:25 00:01:57 12° 269° (W) 00:03:31 145.950 - 145.970 MHz USB
Saudisat 1A 23 Aug 00:01:34 00:04:16 16° 110° (ESE) 00:06:57 436.775 MHz
MaSat-1 23 Aug 00:30:57 00:35:24 35° 57° (ENE) 00:39:22 437.345 MHz
KITSAT 1 23 Aug 00:36:56 00:44:10 38° 108° (ESE) 00:51:24 435.175 FM
Oscar 19 23 Aug 01:19:50 01:21:55 12° 90° (E) 01:24:00 437.125 CW, 437.150 USB
Saudisat 1A 23 Aug 01:39:08 01:43:25 50° 306° (NW) 01:47:44 436.775 MHz
Oscar 16 23 Aug 01:51:15 01:55:39 27° 95° (E) 02:00:01 437.025 USB, Beacon 2401.1428
AO-27 23 Aug 01:58:50 02:01:05 13° 90° (E) 02:03:20 436.795 MHz FM
MaSat-1 23 Aug 02:08:35 02:12:13 23° 257° (WSW) 02:15:30 437.345 MHz
JAS-1B 23 Aug 02:13:36 02:18:17 18° 87° (E) 02:22:31 435.800 - 435.900 CW/SSB
KITSAT 1 23 Aug 02:31:32 02:39:20 50° 307° (NW) 02:47:10 435.175 FM
PCSat 23 Aug 02:34:52 02:37:02 12° 40° (NE) 02:39:11 145.825 MHz
AO-Echo 23 Aug 02:53:50 02:58:25 48° 100° (E) 03:02:56 ?
Oscar 19 23 Aug 02:56:35 03:01:47 74° 286° (WNW) 03:06:57 437.125 CW, 437.150 USB
ITAMSAT 1 23 Aug 03:09:13 03:14:22 64° 102° (ESE) 03:19:29 435.822 SSB
Gurwin Techsat 1B 23 Aug 03:15:18 03:20:02 32° 96° (E) 03:24:44 435.225 FM
Uribyol 2 23 Aug 03:21:25 03:26:38 88° 104° (ESE) 03:31:50 436.500 FM
Oscar 16 23 Aug 03:30:19 03:35:00 35° 291° (WNW) 03:39:40 437.025 USB, Beacon 2401.1428
OPAL 23 Aug 03:33:07 03:37:08 25° 63° (ENE) 03:41:12 ?
AO-27 23 Aug 03:35:56 03:41:06 71° 286° (WNW) 03:46:14 436.795 MHz FM
Sapphire 23 Aug 03:45:51 03:50:52 36° 54° (NE) 03:55:50 437.095 MHz 1200 baud AX-25 AFSK
JAS-1B 23 Aug 04:02:29 04:09:50 67° 289° (WNW) 04:15:59 435.800 - 435.900 CW/SSB
TMSAT-1 23 Aug 04:12:09 04:17:28 81° 103° (ESE) 04:22:45 436.925 FM
AO-7 23 Aug 04:15:57 04:22:22 24° 94° (E) 04:28:44 29.400 - 29.500 MHz
PCSat 23 Aug 04:16:03 04:21:29 69° 60° (ENE) 04:26:52 145.825 MHz
KITSAT 1 23 Aug 04:32:41 04:36:57 15° 332° (NNW) 04:41:14 435.175 FM
AO-Echo 23 Aug 04:33:47 04:36:48 17° 296° (WNW) 04:39:47 ?
ITAMSAT 1 23 Aug 04:50:14 04:53:18 16° 298° (WNW) 04:56:23 435.822 SSB
Gurwin Techsat 1B 23 Aug 04:55:18 04:59:54 31° 292° (WNW) 05:04:29 435.225 FM
Uribyol 2 23 Aug 05:03:35 05:05:20 12° 301° (WNW) 05:07:05 436.500 FM
OPAL 23 Aug 05:11:09 05:15:47 38° 260° (W) 05:20:31 ?
Uosat F 23 Aug 05:14:59 05:19:57 63° 102° (ESE) 05:24:53 435.120 FM
Sapphire 23 Aug 05:29:27 05:34:10 31° 251° (WSW) 05:38:51 437.095 MHz 1200 baud AX-25 AFSK
SO-50 23 Aug 05:37:29 05:41:36 39° 115° (ESE) 05:45:49 436.795 FM
TMSAT-1 23 Aug 05:54:17 05:56:40 13° 300° (WNW) 05:59:02 436.925 FM
JAS-1B 23 Aug 05:56:26 05:58:38 12° 312° (NW) 06:00:45 435.800 - 435.900 CW/SSB
PCSat 23 Aug 06:01:14 06:04:15 15° 256° (WSW) 06:07:16 145.825 MHz
AO-7 23 Aug 06:07:30 06:15:44 70° 292° (WNW) 06:23:55 29.400 - 29.500 MHz
STRAND 1 23 Aug 06:40:36 06:45:34 55° 72° (ENE) 06:50:33 ?
UOSAT-12 23 Aug 06:46:04 06:48:40 15° 108° (ESE) 06:51:18 437.025 FM, 437.400 FM
JAS-2 23 Aug 06:53:24 06:58:27 52° 100° (E) 07:03:40 435.800 - 435.900 CW/SSB, 435.910 FM
Uosat F 23 Aug 06:55:20 06:58:12 16° 298° (WNW) 07:01:04 435.120 FM
Hamsat 23 Aug 07:08:46 07:13:09 82° 283° (WNW) 07:17:29 145.90 MHz
SO-50 23 Aug 07:18:37 07:22:17 24° 313° (NW) 07:26:02 436.795 FM
SO-67 23 Aug 07:32:48 07:35:35 22° 95° (E) 07:38:20 435.3500 MHz FM
AO-7 23 Aug 08:02:42 08:07:02 16° 312° (NW) 08:11:23 29.400 - 29.500 MHz
STRAND 1 23 Aug 08:21:54 08:25:04 17° 268° (W) 08:28:16 ?
UOSAT-12 23 Aug 08:23:45 08:28:18 58° 305° (NW) 08:32:57 437.025 FM, 437.400 FM
Saudisat 1A 23 Aug 08:28:37 08:30:49 13° 41° (NE) 08:33:01 436.775 MHz
KITSAT 1 23 Aug 08:30:55 08:36:28 19° 35° (NE) 08:41:58 435.175 FM
JAS-2 23 Aug 08:39:48 08:43:12 18° 297° (WNW) 08:46:39 435.800 - 435.900 CW/SSB, 435.910 FM
SO-67 23 Aug 09:06:01 09:08:29 19° 290° (WNW) 09:10:57 435.3500 MHz FM
